Location: Asheville, NC
(35.6000°N, 82.5500°W)
Time: 18:49:38
(UTC-04:00)

Vanguard 2 Rocket - Pass Details

Date: 08 March 2018
Orbit: 553 x 3328 km, 32.9° (Epoch: 19 June)

Event Time Altitude Azimuth Distance (km) Brightness Sun altitude
Rises 01:46:28 0° 275° (W) 5,056 - -55.8°
Reaches altitude 10° 01:49:57 10° 264° (W) 4,435 - -55.4°
Maximum altitude 02:00:32 30° 211° (SSW) 3,986 - -54.2°
Drops below altitude 10° 02:15:14 10° 160° (SSE) 6,153 - -52.4°
Exits shadow 02:17:31 - 156° (SSE) 6,578 11.1 -52.1°
Sets 02:21:22 0° 150° (SSE) 7,294 11.4 -51.6°
